Time,TemperatureF,DewpointF,PressureIn,WindDirection,WindDirectionDegrees,WindSpeedMPH,WindSpeedGustMPH,Humidity,HourlyPrecipIn,Conditions,Clouds,dailyrainin,SoftwareType,DateUTC
2017-05-24 00:05:00,71.7,42.6,29.84,West,261,2.0,4.0,35,0.00,,,0.00,Wunderground v.1.15,2017-05-24 07:05:00,
2017-05-24 00:11:00,71.4,41.6,29.84,West,268,2.0,2.0,34,0.00,,,0.00,Wunderground v.1.15,2017-05-24 07:11:00,
2017-05-24 00:17:00,71.3,41.5,29.84,West,268,2.0,3.0,34,0.00,,,0.00,Wunderground v.1.15,2017-05-24 07:17:00,
2017-05-24 00:23:00,71.2,41.4,29.84,West,268,2.0,3.0,34,0.00,,,0.00,Wunderground v.1.15,2017-05-24 07:23:00,
2017-05-24 00:29:00,71.0,40.4,29.83,West,268,2.0,3.0,33,0.00,,,0.00,Wunderground v.1.15,2017-05-24 07:29:00,
2017-05-24 00:34:00,70.9,39.6,29.83,West,269,2.0,3.0,32,0.00,,,0.00,Wunderground v.1.15,2017-05-24 07:34:00,
2017-05-24 00:40:00,70.6,38.5,29.83,West,269,2.0,2.0,31,0.00,,,0.00,Wunderground v.1.15,2017-05-24 07:40:00,
2017-05-24 00:46:00,70.2,38.9,29.83,West,269,2.0,3.0,32,0.00,,,0.00,Wunderground v.1.15,2017-05-24 07:46:00,
2017-05-24 00:52:00,69.8,38.6,29.83,West,280,2.0,3.0,32,0.00,,,0.00,Wunderground v.1.15,2017-05-24 07:52:00,
2017-05-24 00:58:00,69.7,39.3,29.83,West,280,2.0,3.0,33,0.00,,,0.00,Wunderground v.1.15,2017-05-24 07:58:00,
2017-05-24 01:03:00,69.6,39.2,29.83,West,280,1.0,1.0,33,0.00,,,0.00,Wunderground v.1.15,2017-05-24 08:03:00,
2017-05-24 01:07:00,69.6,40.0,29.82,West,280,0.0,2.0,34,0.00,,,0.00,Wunderground v.1.15,2017-05-24 08:07:00,
2017-05-24 01:12:00,69.4,39.8,29.82,West,280,0.0,0.0,34,0.00,,,0.00,Wunderground v.1.15,2017-05-24 08:12:00,
2017-05-24 01:18:00,69.0,38.7,29.82,West,280,0.0,1.0,33,0.00,,,0.00,Wunderground v.1.15,2017-05-24 08:18:00,
2017-05-24 01:23:00,68.7,37.6,29.82,West,280,1.0,1.0,32,0.00,,,0.00,Wunderground v.1.15,2017-05-24 08:23:00,
2017-05-24 01:29:00,68.3,38.8,29.82,West,280,0.0,1.0,34,0.00,,,0.00,Wunderground v.1.15,2017-05-24 08:29:00,
2017-05-24 01:35:00,67.9,38.5,29.82,West,279,1.0,1.0,34,0.00,,,0.00,Wunderground v.1.15,2017-05-24 08:35:00,
2017-05-24 01:36:00,67.9,38.5,29.81,West,279,1.0,1.0,34,0.00,,,0.00,Wunderground v.1.15,2017-05-24 08:36:00,
2017-05-24 01:42:00,67.8,38.4,29.81,West,276,0.0,1.0,34,0.00,,,0.00,Wunderground v.1.15,2017-05-24 08:42:00,
2017-05-24 01:48:00,67.8,38.4,29.81,West,276,0.0,2.0,34,0.00,,,0.00,Wunderground v.1.15,2017-05-24 08:48:00,
2017-05-24 01:54:00,67.6,38.2,29.81,West,276,0.0,1.0,34,0.00,,,0.00,Wunderground v.1.15,2017-05-24 08:54:00,
2017-05-24 02:00:00,67.4,38.0,29.81,West,276,0.0,1.0,34,0.00,,,0.00,Wunderground v.1.15,2017-05-24 09:00:00,
2017-05-24 02:06:00,67.1,37.8,29.81,West,276,0.0,1.0,34,0.00,,,0.00,Wunderground v.1.15,2017-05-24 09:06:00,
2017-05-24 02:12:00,66.8,37.5,29.81,West,276,0.0,1.0,34,0.00,,,0.00,Wunderground v.1.15,2017-05-24 09:12:00,
2017-05-24 02:18:00,66.5,38.7,29.81,West,276,0.0,1.0,36,0.00,,,0.00,Wunderground v.1.15,2017-05-24 09:18:00,
2017-05-24 02:23:00,66.1,37.6,29.81,West,276,0.0,0.0,35,0.00,,,0.00,Wunderground v.1.15,2017-05-24 09:23:00,
2017-05-24 02:29:00,65.8,38.8,29.80,West,276,0.0,0.0,37,0.00,,,0.00,Wunderground v.1.15,2017-05-24 09:29:00,
2017-05-24 02:35:00,65.5,38.5,29.80,West,276,0.0,0.0,37,0.00,,,0.00,Wunderground v.1.15,2017-05-24 09:35:00,
2017-05-24 02:41:00,65.2,38.3,29.80,West,276,1.0,2.0,37,0.00,,,0.00,Wunderground v.1.15,2017-05-24 09:41:00,
2017-05-24 02:47:00,64.8,37.9,29.80,West,276,1.0,2.0,37,0.00,,,0.00,Wunderground v.1.15,2017-05-24 09:47:00,
2017-05-24 02:53:00,64.4,37.5,29.79,West,276,0.0,1.0,37,0.00,,,0.00,Wunderground v.1.15,2017-05-24 09:53:00,
2017-05-24 02:59:00,63.9,38.4,29.79,West,276,0.0,1.0,39,0.00,,,0.00,Wunderground v.1.15,2017-05-24 09:59:00,
2017-05-24 03:04:00,63.5,38.1,29.79,West,276,1.0,1.0,39,0.00,,,0.00,Wunderground v.1.15,2017-05-24 10:04:00,
2017-05-24 03:10:00,63.1,37.7,29.79,West,277,1.0,1.0,39,0.00,,,0.00,Wunderground v.1.15,2017-05-24 10:10:00,
2017-05-24 03:16:00,62.9,37.5,29.79,West,277,1.0,2.0,39,0.00,,,0.00,Wunderground v.1.15,2017-05-24 10:16:00,
2017-05-24 03:22:00,62.6,37.3,29.79,West,277,1.0,1.0,39,0.00,,,0.00,Wunderground v.1.15,2017-05-24 10:22:00,
2017-05-24 03:28:00,62.3,37.7,29.79,West,277,0.0,1.0,40,0.00,,,0.00,Wunderground v.1.15,2017-05-24 10:28:00,
2017-05-24 03:34:00,62.2,37.6,29.79,West,277,1.0,3.0,40,0.00,,,0.00,Wunderground v.1.15,2017-05-24 10:34:00,
2017-05-24 03:40:00,62.2,37.6,29.78,West,278,1.0,1.0,40,0.00,,,0.00,Wunderground v.1.15,2017-05-24 10:40:00,
2017-05-24 03:45:00,62.2,36.9,29.78,West,278,1.0,1.0,39,0.00,,,0.00,Wunderground v.1.15,2017-05-24 10:45:00,
2017-05-24 03:51:00,62.1,37.5,29.78,West,278,0.0,1.0,40,0.00,,,0.00,Wunderground v.1.15,2017-05-24 10:51:00,
2017-05-24 03:57:00,62.0,38.0,29.78,West,278,0.0,1.0,41,0.00,,,0.00,Wunderground v.1.15,2017-05-24 10:57:00,
2017-05-24 04:03:00,62.0,38.0,29.78,West,278,0.0,0.0,41,0.00,,,0.00,Wunderground v.1.15,2017-05-24 11:03:00,
2017-05-24 04:09:00,61.8,39.1,29.78,West,278,0.0,0.0,43,0.00,,,0.00,Wunderground v.1.15,2017-05-24 11:09:00,
2017-05-24 04:10:00,61.8,38.4,29.78,West,278,0.0,0.0,42,0.00,,,0.00,Wunderground v.1.15,2017-05-24 11:10:00,
2017-05-24 04:16:00,61.6,37.0,29.78,West,278,0.0,0.0,40,0.00,,,0.00,Wunderground v.1.15,2017-05-24 11:16:00,
2017-05-24 04:22:00,61.3,37.4,29.78,West,278,0.0,0.0,41,0.00,,,0.00,Wunderground v.1.15,2017-05-24 11:22:00,
2017-05-24 04:28:00,61.1,37.8,29.78,West,276,0.0,0.0,42,0.00,,,0.00,Wunderground v.1.15,2017-05-24 11:28:00,
2017-05-24 04:34:00,61.0,37.7,29.78,West,274,0.0,1.0,42,0.00,,,0.00,Wunderground v.1.15,2017-05-24 11:34:00,
2017-05-24 04:40:00,60.9,38.2,29.78,West,274,0.0,0.0,43,0.00,,,0.00,Wunderground v.1.15,2017-05-24 11:40:00,
2017-05-24 04:46:00,60.8,38.1,29.78,West,274,0.0,1.0,43,0.00,,,0.00,Wunderground v.1.15,2017-05-24 11:46:00,
2017-05-24 04:53:00,60.2,36.4,29.78,West,274,0.0,2.0,41,0.00,,,0.00,Wunderground v.1.15,2017-05-24 11:53:00,
2017-05-24 04:58:00,59.0,35.9,29.78,West,274,1.0,2.0,42,0.00,,,0.00,Wunderground v.1.15,2017-05-24 11:58:00,
2017-05-24 05:04:00,58.4,36.0,29.78,West,274,1.0,2.0,43,0.00,,,0.00,Wunderground v.1.15,2017-05-24 12:04:00,
2017-05-24 05:10:00,57.6,35.2,29.78,West,274,1.0,2.0,43,0.00,,,0.00,Wunderground v.1.15,2017-05-24 12:10:00,
2017-05-24 05:16:00,56.9,35.8,29.78,West,274,2.0,3.0,45,0.00,,,0.00,Wunderground v.1.15,2017-05-24 12:16:00,
2017-05-24 05:28:00,56.9,36.3,29.78,West,274,1.0,2.0,46,0.00,,,0.00,Wunderground v.1.15,2017-05-24 12:28:00,
2017-05-24 05:34:00,56.8,36.2,29.78,West,274,1.0,1.0,46,0.00,,,0.00,Wunderground v.1.15,2017-05-24 12:34:00,
2017-05-24 05:39:00,56.7,36.7,29.78,SW,233,0.0,1.0,47,0.00,,,0.00,Wunderground v.1.15,2017-05-24 12:39:00,